ROT225 LROP-LRCL

Flight info

Callsign ROT225
Flight time N/A
Altitude 38000
Route SOKRU1K/08L SOKRU DCT PATAK DCT LALES DCT TUMKA DCT VLM
Aircraft B738/M-SDE2E3FGHIRWXY/LB1

Departure

Time N/A
Airport Bucharest Henri Coandă International Airport (LROP)

Arrival

Time 2026-05-04 19:43
Airport Avram Iancu Cluj International Airport (LRCL)
Time Latitude Longitude Altitude Speed Heading
2026-05-04 19:20 46.80018 22.04890 37894 ft 393 kts 356°
2026-05-04 19:20 46.82763 22.05218 37281 ft 403 kts 14°
2026-05-04 19:20 46.85364 22.06836 36765 ft 413 kts 32°
2026-05-04 19:21 46.87556 22.09604 36247 ft 424 kts 49°
2026-05-04 19:21 46.89132 22.13309 35727 ft 437 kts 65°
2026-05-04 19:21 46.90072 22.17568 35217 ft 444 kts 73°
2026-05-04 19:21 46.90769 22.21996 34714 ft 447 kts 75°
2026-05-04 19:22 46.91392 22.26442 34213 ft 447 kts 75°
2026-05-04 19:22 46.91984 22.30899 33659 ft 446 kts 76°
2026-05-04 19:22 46.92570 22.35356 33091 ft 447 kts 75°
2026-05-04 19:22 46.93159 22.39825 32548 ft 448 kts 76°
2026-05-04 19:23 46.93761 22.44362 31997 ft 448 kts 76°
2026-05-04 19:23 46.94360 22.48844 31474 ft 450 kts 75°
2026-05-04 19:23 46.94965 22.53340 30962 ft 451 kts 75°
2026-05-04 19:23 46.95572 22.57834 30457 ft 451 kts 75°
2026-05-04 19:24 46.96185 22.62346 29909 ft 452 kts 75°
2026-05-04 19:24 46.96804 22.66864 29317 ft 453 kts 76°
2026-05-04 19:24 46.97429 22.71383 28738 ft 454 kts 76°
2026-05-04 19:24 46.98062 22.75916 28179 ft 454 kts 75°
2026-05-04 19:25 46.98699 22.80450 27617 ft 454 kts 76°
2026-05-04 19:25 46.99340 22.84977 27070 ft 454 kts 76°
2026-05-04 19:25 46.99987 22.89512 26536 ft 455 kts 76°
2026-05-04 19:25 47.00642 22.94054 26007 ft 456 kts 75°
2026-05-04 19:26 47.01303 22.98601 25497 ft 457 kts 75°
2026-05-04 19:26 47.01964 23.03146 24984 ft 454 kts 76°
2026-05-04 19:26 47.02617 23.07659 24436 ft 452 kts 76°
2026-05-04 19:26 47.03260 23.12095 23864 ft 449 kts 76°
2026-05-04 19:27 47.03919 23.16614 23204 ft 445 kts 76°
2026-05-04 19:27 47.04558 23.20975 22526 ft 441 kts 76°
2026-05-04 19:27 47.05202 23.25343 21867 ft 437 kts 76°
2026-05-04 19:27 47.05843 23.29678 21213 ft 432 kts 76°
2026-05-04 19:28 47.06475 23.33956 20588 ft 428 kts 76°
2026-05-04 19:28 47.07104 23.38196 19962 ft 423 kts 76°
2026-05-04 19:28 47.07726 23.42402 19340 ft 419 kts 76°
2026-05-04 19:28 47.08339 23.46560 18751 ft 415 kts 76°
2026-05-04 19:29 47.08945 23.50683 18140 ft 411 kts 76°
2026-05-04 19:29 47.09545 23.54764 17468 ft 407 kts 76°
2026-05-04 19:29 47.10140 23.58801 16822 ft 404 kts 76°
2026-05-04 19:29 47.10735 23.62822 16177 ft 400 kts 76°
2026-05-04 19:30 47.11326 23.66803 15556 ft 397 kts 76°
2026-05-04 19:30 47.11914 23.70756 14936 ft 394 kts 76°
2026-05-04 19:30 47.12497 23.74670 14336 ft 391 kts 76°
2026-05-04 19:30 47.13075 23.78560 13721 ft 388 kts 76°
2026-05-04 19:31 47.13650 23.82412 13064 ft 385 kts 76°
2026-05-04 19:31 47.14164 23.86266 12410 ft 384 kts 83°
2026-05-04 19:31 47.13969 23.90162 11785 ft 385 kts 102°
2026-05-04 19:31 47.13002 23.93823 11187 ft 384 kts 114°
2026-05-04 19:32 47.11809 23.97315 10581 ft 382 kts 115°
2026-05-04 19:32 47.10985 23.99643 10176 ft 380 kts 116°
2026-05-04 19:32 47.09761 24.03064 9540 ft 376 kts 116°
2026-05-04 19:32 47.08551 24.06459 8898 ft 374 kts 116°
2026-05-04 19:33 47.07355 24.09841 8260 ft 373 kts 116°
2026-05-04 19:33 47.06171 24.13213 7640 ft 371 kts 116°
2026-05-04 19:33 47.04996 24.16519 7037 ft 370 kts 120°
2026-05-04 19:33 47.03340 24.19384 6412 ft 370 kts 140°
2026-05-04 19:34 47.01122 24.21240 6042 ft 365 kts 153°
2026-05-04 19:34 47.00362 24.21799 5999 ft 362 kts 154°
2026-05-04 19:34 46.99861 24.22140 5913 ft 363 kts 157°
2026-05-04 19:35 46.97401 24.22929 5504 ft 364 kts 179°
2026-05-04 19:35 46.94906 24.22395 5138 ft 364 kts 199°
2026-05-04 19:35 46.92658 24.20726 4778 ft 362 kts 213°
2026-05-04 19:35 46.90568 24.18685 4402 ft 358 kts 216°
2026-05-04 19:36 46.88538 24.16632 4016 ft 351 kts 216°
2026-05-04 19:36 46.86617 24.14491 3633 ft 343 kts 227°
2026-05-04 19:36 46.85366 24.11689 3590 ft 318 kts 250°
2026-05-04 19:36 46.84667 24.08733 3587 ft 298 kts 255°
2026-05-04 19:37 46.84084 24.05932 3482 ft 275 kts 256°
2026-05-04 19:37 46.83554 24.03386 3352 ft 247 kts 256°
2026-05-04 19:37 46.83073 24.01127 3230 ft 220 kts 256°
2026-05-04 19:37 46.82704 23.99082 3014 ft 198 kts 262°
2026-05-04 19:38 46.82491 23.97179 2770 ft 179 kts 268°
2026-05-04 19:38 46.82363 23.95470 2693 ft 156 kts 266°
2026-05-04 19:38 46.82191 23.94017 2640 ft 144 kts 261°
2026-05-04 19:38 46.81918 23.92599 2478 ft 144 kts 258°
2026-05-04 19:39 46.81572 23.91228 2256 ft 144 kts 255°
2026-05-04 19:39 46.81281 23.89843 2038 ft 140 kts 256°
2026-05-04 19:39 46.81027 23.88475 1898 ft 140 kts 257°
2026-05-04 19:39 46.80818 23.87082 1840 ft 140 kts 258°
2026-05-04 19:40 46.80678 23.85727 1699 ft 130 kts 262°
2026-05-04 19:40 46.80514 23.84462 1518 ft 131 kts 253°
2026-05-04 19:40 46.80259 23.83152 1549 ft 133 kts 249°
2026-05-04 19:40 46.79968 23.81844 1585 ft 138 kts 254°
2026-05-04 19:41 46.79819 23.80468 1674 ft 139 kts 258°
2026-05-04 19:41 46.79617 23.79062 1649 ft 147 kts 252°
2026-05-04 19:41 46.79324 23.77530 1417 ft 162 kts 259°
2026-05-04 19:41 46.79230 23.75934 1386 ft 158 kts 266°
2026-05-04 19:42 46.79142 23.74341 1347 ft 158 kts 256°
2026-05-04 19:42 46.78962 23.72760 1307 ft 157 kts 262°
2026-05-04 19:42 46.78925 23.71176 1241 ft 156 kts 268°
2026-05-04 19:42 46.78913 23.69610 1121 ft 151 kts 270°
2026-05-04 19:43 46.78732 23.68314 1042 ft 93 kts 251°
2026-05-04 19:43 46.78546 23.67512 1042 ft 57 kts 251°
2026-05-04 19:43 46.78452 23.67192 1042 ft 11 kts 207°
2026-05-04 19:43 46.78384 23.67224 1042 ft 11 kts 139°
2026-05-04 19:44 46.78346 23.67313 1042 ft 10 kts 106°
2026-05-04 19:44 46.78351 23.67415 1042 ft 10 kts 79°
2026-05-04 19:44 46.78364 23.67513 1042 ft 10 kts 79°
2026-05-04 19:44 46.78383 23.67606 1042 ft 9 kts 71°
2026-05-04 19:45 46.78404 23.67695 1042 ft 9 kts 71°
2026-05-04 19:45 46.78423 23.67781 1042 ft 9 kts 72°
2026-05-04 19:45 46.78443 23.67867 1042 ft 9 kts 71°
2026-05-04 19:45 46.78462 23.67953 1042 ft 9 kts 72°
2026-05-04 19:46 46.78482 23.68046 1042 ft 10 kts 73°
2026-05-04 19:46 46.78506 23.68149 1042 ft 12 kts 72°
2026-05-04 19:46 46.78487 23.68261 1042 ft 12 kts 122°
2026-05-04 19:46 46.78486 23.68379 1042 ft 12 kts 79°
2026-05-04 19:47 46.78501 23.68495 1042 ft 11 kts 79°
2026-05-04 19:47 46.78513 23.68589 1042 ft 5 kts 92°
2026-05-04 19:47 46.78490 23.68630 1042 ft 6 kts 152°
2026-05-04 19:47 46.78445 23.68651 1042 ft 8 kts 162°
2026-05-04 19:48 46.78420 23.68703 1042 ft 5 kts 103°
2026-05-04 19:48 46.78399 23.68740 1042 ft 5 kts 154°
2026-05-04 19:48 46.78369 23.68749 1042 ft 1 kts 174°
2026-05-04 19:48 46.78362 23.68750 1042 ft 0 kts 174°